Weather History for KRMY - November, 2012

Change the Weather History Date:

Wednesday, November 21, 2012

  Actual Average (KBTL) Record (KBTL)
Temperature  
Mean Temperature 40 °F 37 °F  
Max Temperature 53 °F 45 °F - ()
Min Temperature 28 °F 29 °F - ()
Degree Days  
Heating Degree Days 24 28  
Month to date heating degree days 501  
Since 1 July heating degree days 1163  
Cooling Degree Days 0 0  
Month to date cooling degree days 0  
Year to date cooling degree days 578  
Moisture  
Dew Point 36 °F    
Average Humidity 90    
Maximum Humidity 95    
Minimum Humidity 70    
Precipitation  
Precipitation 0.00 in 0.09 in - ()
Month to date precipitation 2.05  
Year to date precipitation 30.38  
Sea Level Pressure  
Sea Level Pressure 30.18 in    
Wind  
Wind Speed 1 mph (SW)    
Max Wind Speed 9 mph    
Max Gust Speed -    
Visibility 3 miles    
Events Fog    
T = Trace of Precipitation, MM = Missing Value Source: NWS Daily Summary

Daily Weather History Graph

Daily Weather History Graph

Search for Another Location

Airport or City:

Trip Planner

Search our weather history database for the weather conditions in past years. The results will help you decide how hot, cold, wet, or windy it might be!

Date:

Astronomy

Nov. 21, 2012 Rise Set
Actual Time 7:38 AM EST 5:13 PM EST
Civil Twilight 7:07 AM EST 5:43 PM EST
Nautical Twilight 6:33 AM EST 6:18 PM EST
Astronomical Twilight 5:59 AM EST 6:51 PM EST
Moon 1:35 PM EST (11/21) 12:49 AM EST (11/21)
Length of Visible Light 10h 36m
Length of Day
9h 34m
First Quarter, 61% of the Moon is Illuminated
Nov 21
First Quarter
Nov 28
Full
Dec 6
Last Quarter
Dec 13
New
Dec 20
First Quarter

Hourly Weather History & Observations

Time (EST) Temp. Windchill Dew Point Humidity Pressure Visibility Wind Dir Wind Speed Gust Speed Precip Events Conditions
12:14 AM 32.7 °F - 31.1 °F 94% 30.14 in 0.2 mi Calm Calm - N/A Fog Fog
12:33 AM 32.9 °F - 31.5 °F 94% 30.15 in 0.2 mi Calm Calm - N/A Fog Fog
12:53 AM 32.7 °F - 31.3 °F 94% 30.15 in 0.2 mi Calm Calm - N/A Fog Fog
1:14 AM 32.4 °F - 30.9 °F 94% 30.15 in 0.2 mi Calm Calm - N/A Fog Fog
1:33 AM 31.6 °F - 30.4 °F 95% 30.15 in 0.2 mi Calm Calm - N/A Fog Fog
1:53 AM 32.2 °F - 30.9 °F 95% 30.15 in 0.2 mi Calm Calm - N/A Fog Fog
2:14 AM 31.5 °F - 30.2 °F 95% 30.16 in 0.2 mi Calm Calm - N/A Fog Fog
2:33 AM 30.6 °F - 28.9 °F 94% 30.16 in 0.2 mi Calm Calm - N/A Fog Light Freezing Fog
2:53 AM 31.5 °F - 30.2 °F 95% 30.17 in 0.2 mi Calm Calm - N/A Fog Light Freezing Fog
3:14 AM 31.3 °F - 30.0 °F 95% 30.17 in 0.2 mi Calm Calm - N/A Fog Light Freezing Fog
3:33 AM 30.0 °F - 28.6 °F 94% 30.18 in 0.2 mi Calm Calm - N/A Fog Light Freezing Fog
3:53 AM 29.5 °F - 28.0 °F 94% 30.18 in 0.2 mi Calm Calm - N/A Fog Light Freezing Fog
4:14 AM 29.8 °F - 28.4 °F 94% 30.17 in 0.2 mi Calm Calm - N/A Fog Light Freezing Fog
4:33 AM 29.5 °F - 28.0 °F 94% 30.17 in 0.2 mi Calm Calm - N/A Fog Light Freezing Fog
4:54 AM 28.9 °F - 27.5 °F 94% 30.17 in 1.0 mi Calm Calm - N/A   Overcast
5:14 AM 29.1 °F - 27.7 °F 94% 30.17 in 0.2 mi Calm Calm - N/A Fog Light Freezing Fog
5:33 AM 28.0 °F - 26.6 °F 94% 30.17 in 0.2 mi Calm Calm - N/A Fog Light Freezing Fog
5:54 AM 28.9 °F - 27.5 °F 94% 30.17 in 0.2 mi Calm Calm - N/A Fog Light Freezing Fog
6:14 AM 28.4 °F - 27.0 °F 94% 30.18 in 0.2 mi Calm Calm - N/A Fog Light Freezing Fog
6:33 AM 28.8 °F - 27.3 °F 94% 30.18 in 0.2 mi Calm Calm - N/A Fog Light Freezing Fog
6:54 AM 29.1 °F - 27.7 °F 94% 30.19 in 0.2 mi Calm Calm - N/A Fog Light Freezing Fog
7:14 AM 28.4 °F - 27.0 °F 94% 30.20 in 0.2 mi Calm Calm - N/A Fog Light Freezing Fog
7:33 AM 28.9 °F - 27.5 °F 94% 30.21 in 0.2 mi Calm Calm - N/A Fog Light Freezing Fog
7:54 AM 30.0 °F - 28.4 °F 94% 30.22 in 0.2 mi Calm Calm - N/A Fog Light Freezing Fog
8:13 AM 30.0 °F - 28.6 °F 94% 30.22 in 0.2 mi Calm Calm - N/A Fog Light Freezing Fog
8:33 AM 29.8 °F - 28.2 °F 94% 30.21 in 0.2 mi Calm Calm - N/A Fog Light Freezing Fog
8:54 AM 30.0 °F - 28.6 °F 94% 30.22 in 0.2 mi Calm Calm - N/A Fog Light Freezing Fog
9:13 AM 30.6 °F - 29.1 °F 94% 30.22 in 0.2 mi Calm Calm - N/A Fog Light Freezing Fog
9:33 AM 31.6 °F - 30.4 °F 95% 30.23 in 0.2 mi Calm Calm - N/A Fog Fog
9:54 AM 32.9 °F - 31.6 °F 95% 30.23 in 0.2 mi Calm Calm - N/A Fog Fog
10:13 AM 34.0 °F - 32.5 °F 94% 30.23 in 0.2 mi Calm Calm - N/A Fog Fog
10:33 AM 36.3 °F - 34.9 °F 95% 30.24 in 0.2 mi Calm Calm - N/A Fog Fog
10:54 AM 38.3 °F - 36.9 °F 95% 30.24 in 0.2 mi Calm Calm - N/A Fog Fog
11:13 AM 40.3 °F - 38.8 °F 95% 30.24 in 0.2 mi Calm Calm - N/A Fog Fog
11:34 AM 42.1 °F - 40.8 °F 95% 30.23 in 1.0 mi Calm Calm - N/A   Overcast
12:13 PM 46.2 °F - 44.8 °F 95% 30.22 in 5.0 mi Calm Calm - N/A   Scattered Clouds
12:34 PM 47.8 °F - 46.2 °F 94% 30.21 in 7.0 mi West 3.5 mph - N/A   Clear
12:54 PM 48.4 °F - 46.6 °F 93% 30.21 in 10.0 mi West 6.9 mph - N/A   Clear
1:13 PM 48.9 °F - 46.9 °F 93% 30.20 in 7.0 mi SW 4.6 mph - N/A   Clear
1:34 PM 52.7 °F - 45.0 °F 75% 30.20 in 10.0 mi SW 5.8 mph - N/A   Clear
1:54 PM 53.1 °F - 43.3 °F 70% 30.19 in 10.0 mi SW 5.8 mph - N/A   Clear
2:13 PM 53.2 °F - 43.7 °F 70% 30.19 in 10.0 mi SW 6.9 mph - N/A   Clear
2:34 PM 53.2 °F - 43.7 °F 70% 30.18 in 10.0 mi SSW 5.8 mph - N/A   Clear
2:53 PM 53.2 °F - 43.5 °F 70% 30.17 in 10.0 mi SSW 5.8 mph - N/A   Clear
3:13 PM 53.4 °F - 44.1 °F 71% 30.17 in 10.0 mi SSW 9.2 mph - N/A   Clear
3:34 PM 52.7 °F - 43.9 °F 72% 30.17 in 10.0 mi SW 9.2 mph - N/A   Clear
3:53 PM 52.2 °F - 43.5 °F 72% 30.17 in 10.0 mi SW 8.1 mph - N/A   Clear
4:13 PM 51.4 °F - 43.9 °F 75% 30.17 in 10.0 mi SW 5.8 mph - N/A   Clear
4:34 PM 50.9 °F - 43.7 °F 76% 30.17 in 10.0 mi SW 5.8 mph - N/A   Clear
4:58 PM 49.5 °F - 43.3 °F 79% 30.17 in 7.0 mi SW 3.5 mph - N/A   Clear
5:13 PM 47.5 °F - 42.3 °F 82% 30.17 in 7.0 mi SW 3.5 mph - N/A   Clear
5:34 PM 45.1 °F - 41.0 °F 85% 30.17 in 7.0 mi Calm Calm - N/A   Clear
5:53 PM 43.2 °F - 39.9 °F 88% 30.16 in 7.0 mi Calm Calm - N/A   Clear
6:14 PM 43.0 °F - 40.1 °F 90% 30.16 in 5.0 mi Calm Calm - N/A   Clear
6:34 PM 41.5 °F - 39.2 °F 91% 30.16 in 4.0 mi Calm Calm - N/A   Clear
6:53 PM 42.4 °F - 40.5 °F 93% 30.16 in 4.0 mi Calm Calm - N/A   Clear
7:14 PM 37.8 °F - 35.8 °F 93% 30.16 in 0.8 mi Calm Calm - N/A   Mist
7:34 PM 39.9 °F - 37.9 °F 93% 30.16 in 3.0 mi Calm Calm - N/A   Clear
7:53 PM 41.2 °F - 39.4 °F 93% 30.15 in 3.0 mi Calm Calm - N/A   Clear
8:14 PM 39.2 °F - 37.4 °F 93% 30.15 in 2.0 mi Calm Calm - N/A   Clear
8:34 PM 40.8 °F - 39.2 °F 94% 30.15 in 2.0 mi Calm Calm - N/A   Clear
8:53 PM 39.6 °F - 37.8 °F 93% 30.15 in 2.0 mi Calm Calm - N/A   Clear
9:14 PM 41.2 °F - 39.7 °F 95% 30.15 in 1.8 mi Calm Calm - N/A   Mist
9:33 PM 39.9 °F - 38.1 °F 93% 30.15 in 1.8 mi Calm Calm - N/A   Mist
9:54 PM 41.9 °F - 40.5 °F 95% 30.15 in 2.5 mi Calm Calm - N/A   Clear
10:14 PM 42.4 °F - 40.8 °F 94% 30.15 in 2.5 mi Calm Calm - N/A   Clear
10:33 PM 42.3 °F - 40.6 °F 94% 30.15 in 2.0 mi Calm Calm - N/A   Clear
10:54 PM 39.6 °F 37.4 °F 37.9 °F 94% 30.14 in 1.0 mi South 3.5 mph - N/A   Mist
11:14 PM 41.0 °F 39.0 °F 39.4 °F 94% 30.15 in 1.8 mi South 3.5 mph - N/A   Mist
11:33 PM 41.7 °F 39.8 °F 40.3 °F 95% 30.15 in 2.5 mi South 3.5 mph - N/A   Clear
11:54 PM 42.3 °F 39.4 °F 40.6 °F 94% 30.15 in 2.5 mi South 4.6 mph - N/A   Clear